SKYNET 5C

Last updated on Tue Sep 16 2025 00:02:46 GMT+0000 (Coordinated Universal Time)

1 33055U 08030A 25258.40600483 -.00000155 00000+0 00000+0 0 9994 2 33055 3.0792 80.2841 0004212 114.3671 288.3410 1.00271264 63204
UTC large
Height (km)
Speed (km/s)
/
Latitude / Longitude
Inclination (degrees)
Orbital Period (minutes)
Azimuth
Elevation
Range (km)
Doppler Factor

Next 0 passes for location: London (51.5072 / 0.1276)

Sorry there are no passes over London.